Weather History for KLNS - November, 2013

Change the Weather History Date:

Monday, November 4, 2013

  Actual Average Record
Temperature  
Mean Temperature 35 °F -  
Max Temperature 43 °F 61 °F 76 °F (1982)
Min Temperature 27 °F 38 °F 25 °F (2006)
Degree Days  
Heating Degree Days 30    
Moisture  
Dew Point 20 °F    
Average Humidity 55    
Maximum Humidity 72    
Minimum Humidity 34    
Precipitation  
Precipitation 0.00 in - - ()
Sea Level Pressure  
Sea Level Pressure 30.60 in    
Wind  
Wind Speed 4 mph (NE)    
Max Wind Speed 9 mph    
Max Gust Speed -    
Visibility 10 miles    
Events      
Averages and records for this station are not official NWS values.
T = Trace of Precipitation, MM = Missing Value Source: NWS Daily Summary

Daily Weather History Graph

Daily Weather History Graph

Search for Another Location

Airport or City:

Trip Planner

Search our weather history database for the weather conditions in past years. The results will help you decide how hot, cold, wet, or windy it might be!

Date:

Astronomy

Nov. 04, 2013 Rise Set
Actual Time 6:38 AM EST 4:58 PM EST
Civil Twilight 6:09 AM EST 5:27 PM EST
Nautical Twilight 5:37 AM EST 5:59 PM EST
Astronomical Twilight 5:05 AM EST 6:31 PM EST
Moon 7:46 AM EST (11/4) 6:01 PM EST (11/4)
Length of Visible Light 11h 17m
Length of Day
10h 20m
New Moon, 2% of the Moon is Illuminated
Nov 4
New Moon
Nov 10
First Quarter
Nov 17
Full
Nov 25
Last Quarter
Dec 2
New

Hourly Weather History & Observations

Time (EST) Temp. Windchill Dew Point Humidity Pressure Visibility Wind Dir Wind Speed Gust Speed Precip Events Conditions
12:53 AM 30.9 °F 22.8 °F 19.9 °F 64% 30.51 in 10.0 mi North 9.2 mph - N/A   Clear
1:53 AM 30.0 °F 23.2 °F 19.0 °F 64% 30.53 in 10.0 mi North 6.9 mph - N/A   Clear
2:53 AM 28.9 °F 23.9 °F 19.0 °F 67% 30.53 in 10.0 mi North 4.6 mph - N/A   Clear
3:53 AM 28.9 °F - 18.0 °F 64% 30.56 in 10.0 mi Calm Calm - N/A   Clear
4:53 AM 27.0 °F - 19.0 °F 72% 30.57 in 10.0 mi Calm Calm - N/A   Clear
5:53 AM 28.9 °F - 18.0 °F 64% 30.59 in 10.0 mi Calm Calm - N/A   Clear
6:53 AM 27.0 °F - 19.0 °F 72% 30.61 in 10.0 mi Calm Calm - N/A   Clear
7:53 AM 33.1 °F 27.7 °F 19.9 °F 59% 30.64 in 10.0 mi North 5.8 mph - N/A   Clear
8:53 AM 35.1 °F 27.9 °F 19.9 °F 54% 30.63 in 10.0 mi NE 9.2 mph - N/A   Clear
9:53 AM 37.9 °F 32.1 °F 17.1 °F 43% 30.64 in 10.0 mi ENE 8.1 mph - N/A   Clear
10:53 AM 39.9 °F 35.8 °F 18.0 °F 41% 30.63 in 10.0 mi Variable 5.8 mph - N/A   Clear
11:53 AM 41.0 °F 35.8 °F 18.0 °F 40% 30.63 in 10.0 mi ESE 8.1 mph - N/A   Clear
12:53 PM 43.0 °F - 19.0 °F 38% 30.61 in 10.0 mi Calm Calm - N/A   Clear
1:53 PM 42.1 °F - 17.1 °F 37% 30.59 in 10.0 mi Calm Calm - N/A   Clear
2:53 PM 43.0 °F - 18.0 °F 37% 30.61 in 10.0 mi Calm Calm - N/A   Clear
3:53 PM 43.0 °F - 16.0 °F 34% 30.60 in 10.0 mi Calm Calm - N/A   Clear
4:53 PM 42.1 °F - 19.0 °F 40% 30.61 in 10.0 mi Calm Calm - N/A   Clear
5:53 PM 39.0 °F - 23.0 °F 53% 30.61 in 10.0 mi Calm Calm - N/A   Clear
6:53 PM 36.0 °F - 23.0 °F 59% 30.61 in 10.0 mi Calm Calm - N/A   Clear
7:53 PM 37.9 °F - 19.9 °F 48% 30.62 in 10.0 mi Calm Calm - N/A   Clear
8:53 PM 36.0 °F - 21.9 °F 57% 30.64 in 10.0 mi Calm Calm - N/A   Clear
9:53 PM 35.1 °F - 24.1 °F 64% 30.64 in 10.0 mi Calm Calm - N/A   Clear
10:53 PM 34.0 °F - 24.1 °F 67% 30.65 in 10.0 mi Calm Calm - N/A   Clear
11:53 PM 33.1 °F 30.0 °F 25.0 °F 72% 30.63 in 10.0 mi East 3.5 mph - N/A   Mostly Cloudy